星链-1531 (STARLINK-1531 )

导读 | 星芒AI

STARLINK-1531 是 SpaceX Starlink 项目中的一颗低轨通信卫星,属于第5批(v1.5)Starlink 卫星群。该卫星于2022年11月18日由猎鹰9号火箭从卡纳维拉尔角发射升空。它运行在约550公里高的近地轨道,设计用于提供全球宽带互联网服务。STARLINK-1531 采用先进的相控阵天线和激光通信技术,以提高数据传输速度和网络稳定性。该卫星是SpaceX构建全球卫星互联网网络的重要组成部分。

基本信息
目录编号:
46572
目录名称:
STARLINK-1531
国际标识:
2020-070AS
轨道中心:
EARTH
卫星名称:
星链-1531
卫星全名:
星链-1531 (STARLINK-1531 )
卫星状态:
在轨 (已飞行1849 天)
发射日期:
2020-10-06 UTC
国别 :
美国 (US)
星等 :
--
轨道信息
数据来源 国际轨道数据
星历时间: 2025-10-28T19:33:41+0800
1天前
查看轨道信息
半长轴: 6857.843km
偏心率: 0.0002457
轨道倾角: 53.059°
近地点辐角 28.115°
升交点赤经 48.085°
平近点角 331.998°
近地点: 478.023km
远地点: 481.393km
周期: 94.198分钟
每日圈数: 15.286972
详细信息
固有亮度:
5
最大亮度:
2.5
卫星平台:
Starlink V1.0
覆盖范围:
全球
运营商:
太空探索技术公司
运营商所在国:
美国
制造商(研发单位):
太空探索技术公司
制造商所在国:
美国
使用方式:
暂无
卫星简介
星链(Starlink)计划是由太空探索技术公司(SpaceX)提出的一个巨型低轨卫星互联网星座项目,计划在2019年至2024年间在太空搭建由约1.2万颗卫星组成的“星链”网络,其中1584颗将部署在地球上空550千米处的近地轨道,并从2020年开始工作。该卫星仍在工作。
2D轨道图
3D轨道图
轨道高度分析图
轨道倾角分析图
轨道综合分析图
查看轨道综合分析图